This is the latest recevied weather packets stored in our database for station/object WW3TRG. If no packets are shown the sender has not sent any weather packets the latest 10 day(s).
| Time | Temp. | Humidity | Pressure | Rain* | Wind** | Luminosity | Snow |
|---|---|---|---|---|---|---|---|
| 1777738396 | 14.44° C | 47% | 1012.3 hPa | 0 mm | - | 549 W/m² | - |
| 1777738094 | 13.89° C | 48% | 1012.1 hPa | 0 mm | - | 686 W/m² | - |
| 1777737792 | 13.33° C | 50% | 1012.1 hPa | 0 mm | - | 689 W/m² | - |
| 1777737490 | 13.33° C | 51% | 1012.3 hPa | 0 mm | - | 679 W/m² | - |
| 1777737188 | 13.33° C | 50% | 1012.4 hPa | 0 mm | - | 634 W/m² | - |
| 1777736882 | 12.78° C | 52% | 1012.2 hPa | 0 mm | - | 647 W/m² | - |
| 1777736264 | 13.33° C | 52% | 1012.3 hPa | 0 mm | - | 595 W/m² | - |
| 1777735961 | 12.78° C | 52% | 1012.4 hPa | 0 mm | - | 767 W/m² | - |
| 1777735658 | 12.78° C | 57% | 1012.5 hPa | 0 mm | - | 727 W/m² | - |
| 1777735355 | 12.22° C | 57% | 1012.3 hPa | 0 mm | - | 719 W/m² | - |
| 1777735053 | 11.67° C | 54% | 1012.4 hPa | 0 mm | - | 621 W/m² | - |
| 1777734750 | 11.67° C | 56% | 1012.5 hPa | 0 mm | - | 149 W/m² | - |
| 1777734448 | 11.67° C | 56% | 1012.6 hPa | 0 mm | - | 402 W/m² | - |
| 1777734144 | 11.67° C | 54% | 1012.4 hPa | 0 mm | - | 697 W/m² | - |
| 1777733841 | 11.67° C | 58% | 1012.2 hPa | 0 mm | - | 723 W/m² | - |
| 1777733537 | 12.78° C | 58% | 1012.6 hPa | 0 mm | - | 706 W/m² | - |
| 1777733234 | 12.22° C | 58% | 1012.3 hPa | 0 mm | - | 725 W/m² | - |
| 1777732930 | 12.22° C | 61% | 1012.5 hPa | 0 mm | - | 723 W/m² | - |
| 1777732626 | 11.11° C | 58% | 1012.6 hPa | 0 mm | - | 498 W/m² | - |
| 1777732324 | 11.67° C | 64% | 1012.5 hPa | 0 mm | - | 648 W/m² | - |
| 1777732022 | 11.11° C | 62% | 1012.7 hPa | 0 mm | - | 146 W/m² | - |
| 1777731718 | 11.11° C | 63% | 1012.6 hPa | 0 mm | - | 88 W/m² | - |
| 1777731415 | 11.67° C | 63% | 1012.5 hPa | 0 mm | - | 591 W/m² | - |
| 1777731113 | 11.67° C | 63% | 1012.4 hPa | 0 mm | - | 650 W/m² | - |
| 1777730811 | 10.56° C | 65% | 1012.5 hPa | 0 mm | - | 610 W/m² | - |
* Rain latest hour (hover to see other rain measurements)
** Current wind speed in m/s (hover to see current wind gust speed)